Orbital Elements at Epoch 2459200.5 (2020-Dec-17.0) TDB
Reference: JPL 10 (heliocentric ecliptic J2000)
Element | Value | Uncertainty (1-sigma) | Units |
e | .2341417736637769 | 9.0281e-08 | |
a | 2.635808987745406 | 1.5534e-08 | au |
q | 2.018655996315772 | 2.4076e-07 | au |
i | 4.488949926981052 | 6.5627e-06 | deg |
node | 107.5333290158186 | 0.00010193 | deg |
peri | 90.78653758632616 | 0.00010379 | deg |
M | 314.4649156055799 | 1.4838e-05 | deg |
tp | 2459398.202869927380 (2021-Jul-02.70286993) | 6.4753e-05 | TDB |
period | 1563.03725183341 4.28 | 1.3817e-05 3.783e-08 | d yr |
n | .2303208062237337 | 2.036e-09 | deg/d |
Q | 3.25296197917504 | 1.9171e-08 | au |
|
| | Orbit Determination Parameters
Additional Information
|